Regional Weather Roundup
Issued by NWS Northern Indiana

Home | Current Version | Previous Version | Graphics & Text | Print | Product List | Glossary On
Versions: 1 2 3 4 5 6 7 8 9 10 11 12 13 14 15 16 17 18 19 20 21 22 23 24 25 26 27 28 29 30 31 32 33 34 35 36 37 38 39 40 41 42 43 44 45 46 47 48 49 50
000
ASUS43 KIWX 061710
RWRIWX

KIWX WEATHER ROUNDUP
NATIONAL WEATHER SERVICE NORTHERN INDIANA
100 PM EDT WED MAY 06 2015

NOTE: "FAIR" INDICATES FEW OR NO CLOUDS BELOW 12,000 FEET WITH NO
SIGNIFICANT WEATHER AND/OR OBSTRUCTIONS TO VISIBILITY.

* THESE STATIONS ARE NOT UNDER NWS QUALITY CONTROL. THEY ALSO MAY NOT
  REPORT WEATHER SUCH AS PRECIPITATION OR FOG.

INZ001>027-061800-
NORTHERN INDIANA

CITY           SKY/WX    TMP DP  RH WIND       PRES   REMARKS
GARY*          MOSUNNY   75 N/A N/A S6        30.17F HAZE
VALPARAISO     MOSUNNY   73  62  68 S8        30.18F
MICHIGAN CITY* SUNNY     73  55  53 S5        30.18F
LAPORTE*       MOSUNNY   71  62  73 S5        30.19F HAZE
KNOX*          SUNNY     73  46  38 S6        30.18F
SOUTH BEND     MOSUNNY   71  60  68 VRB6      30.19F
ELKHART*       MOSUNNY   66  57  72 SE6       30.21F
GOSHEN         MOSUNNY   69  61  75 SE7       30.20F HAZE
MONTICELLO*    SUNNY     78  63  59 CALM      30.17F
LOGANSPORT*    SUNNY     75  57  53 SE5       30.20F
ROCHESTER*     SUNNY     73  63  68 SE3       30.20F
WARSAW*        MOSUNNY   70  61  73 E6        30.21F HAZE
ANGOLA*        CLOUDY    61  59  94 S6        30.22F
FORT WAYNE     MOSUNNY   70  59  68 VRB3      30.22F
HUNTINGTON*    MOSUNNY   69  58  69 CALM      30.22S
PERU/GRISSOM   MOSUNNY   75  62  64 VRB1      30.19F
MARION*        MOSUNNY   78  57  48 CALM      30.21F

$$
INZ028>050-061800-
CENTRAL INDIANA

CITY           SKY/WX    TMP DP  RH WIND       PRES   REMARKS
LAFAYETTE      SUNNY     80  55  42 SW9       30.17F
KOKOMO*        MOSUNNY   79  61  53 CALM      30.19F
MUNCIE*        MOSUNNY   80  54  40 W6        30.20F
INDIANAPOLIS   MOSUNNY   82  53  36 VRB5      30.18F

$$
MIZ043>046-050>051-056>058-064>065-071>073-077>080-061800-
SOUTHWEST LOWER MICHIGAN

CITY           SKY/WX    TMP DP  RH WIND       PRES   REMARKS
BATTLE CREEK   CLOUDY    63  57  81 E6        30.23F
BENTON HARBOR  SUNNY     71  61  70 S8        30.18F
COLDWATER*     CLOUDY    62  59  91 SE3       30.23S FOG
HILLSDALE*     CLOUDY    62  61  94 SE5       30.24S FOG
HOLLAND        PTSUNNY   66  59  78 E8        30.21F
GRAND RAPIDS   CLOUDY    62  55  77 E8        30.23F HAZE
KALAMAZOO      PTSUNNY   64  57  78 VRB6      30.22F HAZE
STURGIS*       MOSUNNY   66  61  82 CALM      30.21F HAZE
THREE RIVERS*  FAIR      67  60  79 E3        30.22S

$$
OHZ001>008-015>018-024>025-061800-
NORTHWEST OHIO

CITY           SKY/WX    TMP DP  RH WIND       PRES   REMARKS
WAUSEON*       CLOUDY    59  59 100 SE6       30.24F FOG
DEFIANCE       CLOUDY    61  56  83 E3        30.24F HAZE
FINDLAY        PTSUNNY   69  58  67 NE3       30.22F
TOLEDO EXPRESS CLOUDY    59  54  83 E7        30.24F HAZE
TOLEDO METCALF CLOUDY    58  54  86 NE7       30.25F
LIMA           MOSUNNY   71  58  63 NW5       30.22F

$$
AND FOR LAKE MICHIGAN COASTAL AND OPEN LAKE BUOY OBSERVATIONS

STATION/POSITION TEMP    WIND        PRES    VSBY  WAVE
                 AIR SEA DIR/SP/G                  HT/PER
                 (F)     (DEG/KT/KT) (MB)    (MI)  (FT/S)
CALUMET HARBOR    56      50/  4/  5   N/A
MICHIGAN CITY     63     330/  4/  5   N/A
BURNS HARBOR      60      70/  4/  4 1022.0F
SAINT JOSEPH      60     350/  6/  7 1022.7R
4 MI NW BRIDGMAN  55 53  360/  6/  6   N/A           0
MICHIGAN CITY     56 54   20/  4/  4   N/A           0

$$
&&



USA.gov is the U.S. government's official web portal to all federal, state and local government web resources and services.